Skip Page Navigation
NASA JPL Caltech
NASA Logo - Jet Propulsion Laboratory + View the NASA Portal
+ Near-Earth Object (NEO) Program
Search JPL
JPL Home Earth Solar System Stars & Galaxies Technology
JPL Solar System Dynamics
BODIES ORBITS EPHEMERIDES TOOLS PHYSICAL DATA DISCOVERY FAQ SITE MAP
JPL Small-Body Database Browser
Search: [ help ]  
3728 IRAS (1983 QF)
Classification: Main-belt Asteroid          SPK-ID: 2003728
Ephemeris | Orbit Diagram | Orbital Elements | Physical Parameters | Discovery Circumstances ]

[ show orbit diagram ]
Orbital Elements at Epoch 2457000.5 (2014-Dec-09.0) TDB
Reference: JPL 10 (heliocentric ecliptic J2000)
 Element Value Uncertainty (1-sigma)   Units 
e .2131304937338217 4.6123e-08  
a 2.650302436854258 1.7688e-08 AU
q 2.08544216994356 1.2648e-07 AU
i 22.59317232034576 7.3113e-06 deg
node 167.3731366571364 1.4036e-05 deg
peri 281.2303152330135 2.2883e-05 deg
M 47.65720928339711 1.6597e-05 deg
tp 2456791.874357481063
(2014-May-14.37435748)
7.2246e-05 JED
period 1575.946901552677
4.31
1.5777e-05
4.32e-08
d
yr
n .2284340923195545 2.2868e-09 deg/d
Q 3.215162703764957 2.1458e-08 AU
  Orbit Determination Parameters
   # obs. used (total)      1086  
   data-arc span      24213 days (66.29 yr)  
   first obs. used      1948-09-07  
   last obs. used      2014-12-23  
   planetary ephem.      DE431  
   SB-pert. ephem.      SB431-BIG16  
   condition code      0  
   fit RMS      .49396  
   data source      ORB  
   producer      Otto Matic  
   solution date      2015-Jan-08 00:03:42  

Additional Information
 Earth MOID = 1.22237 AU 
 T_jup = 3.251 
[ show covariance matrix ]

Ephemeris | Orbit Diagram | Orbital Elements | Physical Parameters | Discovery Circumstances ]

Physical Parameter Table
Parameter Symbol Value Units Sigma Reference Notes
absolute magnitude H 11.9 mag n/a MPO279554  
diameter diameter 19.55 km 1.7 IRAS-A-FPA-3-RDR-IMPS-V6.0 IRAS observations used: 12
rotation period rot_per 8.323 h n/a Asteroid Lightcurve DataBase (Rev. 2014-Mar-01) Published Reference List:
[Warner, B.D. (2009) Minor Planet Bul. 36, 7-13.]
geometric albedo albedo 0.1161   0.023 IRAS-A-FPA-3-RDR-IMPS-V6.0 IRAS observations used: 12

3728 IRAS (1983 QF)          Discovered 1983-Aug-23 by IRAS
Reference: DISCOVERY.DBLast Updated: 2003-08-29

Alternate Designations
 1983 QF = 1948 RN = 1963 FA = 1972 FH = 1976 GL = 1985 GT 
Ephemeris | Orbit Diagram | Orbital Elements | Physical Parameters | Discovery Circumstances ]
ABOUT SSD CREDITS/AWARDS PRIVACY/COPYRIGHT GLOSSARY LINKS
FirstGov 2015-Jan-25 03:50 UT
(server date/time)  
NASA Home Page
Site Manager:   Donald K. Yeomans
Webmaster  Alan B. Chamberlin